Time,TemperatureF,DewpointF,PressureIn,WindDirection,WindDirectionDegrees,WindSpeedMPH,WindSpeedGustMPH,Humidity,HourlyPrecipIn,Conditions,Clouds,dailyrainin,SoftwareType,DateUTC
2013-04-17 00:02:00,66.0,33.0,29.79,SSW,200,0.0,0.0,29,0.00,,,0.00,,2013-04-17 05:02:00,
2013-04-17 00:12:00,66.0,33.0,29.79,SSW,200,0.0,0.0,29,0.00,,,0.00,,2013-04-17 05:12:00,
2013-04-17 00:22:00,64.0,39.0,29.80,SSW,200,0.0,0.0,40,0.00,,,0.00,,2013-04-17 05:22:00,
2013-04-17 00:30:00,63.0,41.0,29.80,SSW,202,0.0,0.0,45,0.00,,,0.00,,2013-04-17 05:30:00,
2013-04-17 00:32:00,64.0,39.0,29.80,SSW,200,0.0,0.0,40,0.00,,,0.00,,2013-04-17 05:32:00,
2013-04-17 00:43:00,64.0,39.0,29.80,SSW,200,0.0,0.0,40,0.00,,,0.00,,2013-04-17 05:43:00,
2013-04-17 00:52:00,63.0,41.0,29.80,SSW,202,0.0,0.0,45,0.00,,,0.00,,2013-04-17 05:52:00,
2013-04-17 01:02:00,63.0,41.0,29.80,SSW,202,0.0,0.0,45,0.00,,,0.00,,2013-04-17 06:02:00,
2013-04-17 01:12:00,63.0,41.0,29.80,SSW,202,0.0,0.0,45,0.00,,,0.00,,2013-04-17 06:12:00,
2013-04-17 01:22:00,63.0,41.0,29.80,SSW,202,0.0,0.0,45,0.00,,,0.00,,2013-04-17 06:22:00,
2013-04-17 09:22:00,64.0,49.0,29.80,WNW,284,4.0,7.0,58,0.00,,,0.00,,2013-04-17 14:22:00,
2013-04-17 09:30:00,68.0,45.0,29.79,West,277,1.0,11.0,43,0.00,,,0.00,,2013-04-17 14:30:00,
2013-04-17 09:32:00,64.0,49.0,29.80,WNW,284,4.0,7.0,58,0.00,,,0.00,,2013-04-17 14:32:00,
2013-04-17 09:43:00,68.0,45.0,29.79,West,277,1.0,11.0,43,0.00,,,0.00,,2013-04-17 14:43:00,
2013-04-17 09:52:00,68.0,45.0,29.79,West,277,1.0,11.0,43,0.00,,,0.00,,2013-04-17 14:52:00,
2013-04-17 10:02:00,68.0,45.0,29.79,West,277,1.0,11.0,43,0.00,,,0.00,,2013-04-17 15:02:00,
2013-04-17 10:12:00,68.0,45.0,29.79,West,277,1.0,11.0,43,0.00,,,0.00,,2013-04-17 15:12:00,
2013-04-17 10:22:00,68.0,45.0,29.79,West,277,1.0,11.0,43,0.00,,,0.00,,2013-04-17 15:22:00,
2013-04-17 11:13:00,76.0,32.0,29.80,West,280,5.0,17.0,20,0.00,,,0.00,,2013-04-17 16:13:00,
2013-04-17 11:23:00,76.0,32.0,29.80,West,280,5.0,17.0,20,0.00,,,0.00,,2013-04-17 16:23:00,
2013-04-17 11:32:00,76.0,32.0,29.80,West,280,5.0,17.0,20,0.00,,,0.00,,2013-04-17 16:32:00,
2013-04-17 11:42:00,76.0,32.0,29.80,West,280,5.0,17.0,20,0.00,,,0.00,,2013-04-17 16:42:00,
2013-04-17 11:52:00,78.0,23.0,29.80,SW,216,5.0,16.0,13,0.00,,,0.00,,2013-04-17 16:52:00,
2013-04-17 12:02:00,78.0,23.0,29.80,SW,216,5.0,16.0,13,0.00,,,0.00,,2013-04-17 17:02:00,
2013-04-17 12:12:00,78.0,23.0,29.80,SW,216,5.0,16.0,13,0.00,,,0.00,,2013-04-17 17:12:00,
2013-04-17 12:22:00,79.0,22.0,29.78,SW,226,2.0,28.0,12,0.00,,,0.00,,2013-04-17 17:22:00,
2013-04-17 12:33:00,79.0,22.0,29.78,SW,226,2.0,28.0,12,0.00,,,0.00,,2013-04-17 17:33:00,
2013-04-17 12:42:00,79.0,22.0,29.78,SW,226,2.0,28.0,12,0.00,,,0.00,,2013-04-17 17:42:00,
2013-04-17 12:52:00,80.0,21.0,29.78,SW,223,0.0,17.0,11,0.00,,,0.00,,2013-04-17 17:52:00,
2013-04-17 13:02:00,80.0,21.0,29.78,SW,223,0.0,17.0,11,0.00,,,0.00,,2013-04-17 18:02:00,
2013-04-17 13:12:00,80.0,21.0,29.78,SW,223,0.0,17.0,11,0.00,,,0.00,,2013-04-17 18:12:00,
2013-04-17 13:22:00,83.0,21.0,29.77,NNW,330,3.0,16.0,10,0.00,,,0.00,,2013-04-17 18:22:00,
2013-04-17 13:30:00,82.0,20.0,29.75,West,271,2.0,16.0,10,0.00,,,0.00,,2013-04-17 18:30:00,
2013-04-17 13:32:00,83.0,21.0,29.77,NNW,330,3.0,16.0,10,0.00,,,0.00,,2013-04-17 18:32:00,
2013-04-17 13:42:00,83.0,21.0,29.77,NNW,330,3.0,16.0,10,0.00,,,0.00,,2013-04-17 18:42:00,
2013-04-17 13:52:00,82.0,20.0,29.75,West,271,2.0,16.0,10,0.00,,,0.00,,2013-04-17 18:52:00,
2013-04-17 14:02:00,82.0,20.0,29.75,West,271,2.0,16.0,10,0.00,,,0.00,,2013-04-17 19:02:00,
2013-04-17 14:12:00,82.0,20.0,29.75,West,271,2.0,16.0,10,0.00,,,0.00,,2013-04-17 19:12:00,
2013-04-17 14:22:00,82.0,20.0,29.75,West,271,2.0,16.0,10,0.00,,,0.00,,2013-04-17 19:22:00,
2013-04-17 15:00:00,84.0,22.0,29.71,SSW,193,6.0,17.0,10,0.00,,,0.00,,2013-04-17 20:00:00,
2013-04-17 15:22:00,84.0,22.0,29.71,SSW,193,6.0,17.0,10,0.00,,,0.00,,2013-04-17 20:22:00,
2013-04-17 15:33:00,84.0,22.0,29.71,SSW,193,6.0,17.0,10,0.00,,,0.00,,2013-04-17 20:33:00,
2013-04-17 15:42:00,84.0,22.0,29.71,SSW,193,6.0,17.0,10,0.00,,,0.00,,2013-04-17 20:42:00,
2013-04-17 15:52:00,84.0,22.0,29.71,SSW,193,6.0,17.0,10,0.00,,,0.00,,2013-04-17 20:52:00,
2013-04-17 16:22:00,85.0,20.0,29.69,South,188,7.0,27.0,9,0.00,,,0.00,,2013-04-17 21:22:00,
2013-04-17 16:33:00,85.0,20.0,29.69,South,188,7.0,27.0,9,0.00,,,0.00,,2013-04-17 21:33:00,
2013-04-17 16:43:00,85.0,20.0,29.68,SSW,195,10.0,20.0,9,0.00,,,0.00,,2013-04-17 21:43:00,
2013-04-17 16:53:00,85.0,20.0,29.68,SSW,195,10.0,20.0,9,0.00,,,0.00,,2013-04-17 21:53:00,
2013-04-17 17:02:00,85.0,20.0,29.68,SSW,195,10.0,20.0,9,0.00,,,0.00,,2013-04-17 22:02:00,
2013-04-17 17:12:00,85.0,20.0,29.68,SSW,195,10.0,20.0,9,0.00,,,0.00,,2013-04-17 22:12:00,
2013-04-17 17:22:00,85.0,17.0,29.68,South,176,6.0,25.0,8,0.00,,,0.00,,2013-04-17 22:22:00,
2013-04-17 17:33:00,85.0,17.0,29.68,South,176,6.0,25.0,8,0.00,,,0.00,,2013-04-17 22:33:00,
2013-04-17 17:43:00,85.0,17.0,29.66,SSE,155,0.0,22.0,8,0.00,,,0.00,,2013-04-17 22:43:00,
2013-04-17 17:53:00,85.0,17.0,29.66,SSE,155,0.0,22.0,8,0.00,,,0.00,,2013-04-17 22:53:00,
2013-04-17 18:02:00,85.0,17.0,29.66,SSE,155,0.0,22.0,8,0.00,,,0.00,,2013-04-17 23:02:00,
2013-04-17 18:12:00,84.0,13.0,29.65,West,270,1.0,17.0,7,0.00,,,0.00,,2013-04-17 23:12:00,
2013-04-17 18:22:00,84.0,13.0,29.65,West,270,1.0,17.0,7,0.00,,,0.00,,2013-04-17 23:22:00,
2013-04-17 18:32:00,84.0,13.0,29.65,West,270,1.0,17.0,7,0.00,,,0.00,,2013-04-17 23:32:00,
2013-04-17 18:42:00,83.0,9.0,29.67,West,280,4.0,27.0,6,0.00,,,0.00,,2013-04-17 23:42:00,
2013-04-17 18:52:00,83.0,9.0,29.67,West,280,4.0,27.0,6,0.00,,,0.00,,2013-04-17 23:52:00,
2013-04-17 19:02:00,83.0,9.0,29.67,West,280,4.0,27.0,6,0.00,,,0.00,,2013-04-18 00:02:00,
2013-04-17 19:12:00,82.0,8.0,29.68,West,274,3.0,22.0,6,0.00,,,0.00,,2013-04-18 00:12:00,
2013-04-17 19:22:00,82.0,8.0,29.68,West,274,3.0,22.0,6,0.00,,,0.00,,2013-04-18 00:22:00,
2013-04-17 19:32:00,82.0,8.0,29.68,West,274,3.0,22.0,6,0.00,,,0.00,,2013-04-18 00:32:00,
2013-04-17 19:42:00,80.0,7.0,29.67,West,281,6.0,24.0,6,0.00,,,0.00,,2013-04-18 00:42:00,
2013-04-17 19:52:00,80.0,7.0,29.67,West,281,6.0,24.0,6,0.00,,,0.00,,2013-04-18 00:52:00,
2013-04-17 20:02:00,80.0,7.0,29.67,West,281,6.0,24.0,6,0.00,,,0.00,,2013-04-18 01:02:00,
2013-04-17 20:12:00,79.0,10.0,29.67,WSW,241,0.0,3.0,7,0.00,,,0.00,,2013-04-18 01:12:00,
2013-04-17 20:22:00,79.0,10.0,29.67,WSW,241,0.0,3.0,7,0.00,,,0.00,,2013-04-18 01:22:00,
2013-04-17 20:32:00,79.0,10.0,29.67,WSW,241,0.0,3.0,7,0.00,,,0.00,,2013-04-18 01:32:00,
2013-04-17 20:42:00,76.0,10.0,29.67,SSW,206,1.0,9.0,8,0.00,,,0.00,,2013-04-18 01:42:00,
2013-04-17 20:52:00,76.0,10.0,29.67,SSW,206,1.0,9.0,8,0.00,,,0.00,,2013-04-18 01:52:00,
2013-04-17 21:02:00,76.0,10.0,29.67,SSW,206,1.0,9.0,8,0.00,,,0.00,,2013-04-18 02:02:00,
2013-04-17 21:12:00,74.0,9.0,29.68,NNE,13,0.0,11.0,8,0.00,,,0.00,,2013-04-18 02:12:00,
2013-04-17 21:22:00,74.0,9.0,29.68,NNE,13,0.0,11.0,8,0.00,,,0.00,,2013-04-18 02:22:00,
2013-04-17 21:32:00,74.0,9.0,29.68,NNE,13,0.0,11.0,8,0.00,,,0.00,,2013-04-18 02:32:00,
2013-04-17 21:42:00,74.0,9.0,29.68,NNE,13,0.0,11.0,8,0.00,,,0.00,,2013-04-18 02:42:00,
2013-04-17 21:52:00,74.0,9.0,29.68,NNE,13,0.0,11.0,8,0.00,,,0.00,,2013-04-18 02:52:00,
2013-04-17 22:02:00,73.0,11.0,29.69,WSW,241,0.0,10.0,9,0.00,,,0.00,,2013-04-18 03:02:00,
2013-04-17 22:12:00,72.0,10.0,29.70,West,264,0.0,6.0,9,0.00,,,0.00,,2013-04-18 03:12:00,
2013-04-17 22:22:00,72.0,10.0,29.70,West,264,0.0,6.0,9,0.00,,,0.00,,2013-04-18 03:22:00,
2013-04-17 22:33:00,72.0,10.0,29.70,West,264,0.0,6.0,9,0.00,,,0.00,,2013-04-18 03:33:00,
2013-04-17 22:43:00,72.0,12.0,29.73,WNW,291,4.0,13.0,10,0.00,,,0.00,,2013-04-18 03:43:00,
2013-04-17 22:53:00,72.0,12.0,29.73,WNW,291,4.0,13.0,10,0.00,,,0.00,,2013-04-18 03:53:00,
2013-04-17 23:03:00,72.0,12.0,29.73,WNW,291,4.0,13.0,10,0.00,,,0.00,,2013-04-18 04:03:00,
2013-04-17 23:13:00,72.0,12.0,29.73,WNW,291,4.0,13.0,10,0.00,,,0.00,,2013-04-18 04:13:00,
2013-04-17 23:23:00,70.0,11.0,29.73,NW,309,1.0,6.0,10,0.00,,,0.00,,2013-04-18 04:23:00,
2013-04-17 23:33:00,70.0,11.0,29.73,NW,309,1.0,6.0,10,0.00,,,0.00,,2013-04-18 04:33:00,
2013-04-17 23:43:00,67.0,9.0,29.73,WNW,289,0.0,12.0,10,0.00,,,0.00,,2013-04-18 04:43:00,
2013-04-17 23:53:00,67.0,9.0,29.73,WNW,289,0.0,12.0,10,0.00,,,0.00,,2013-04-18 04:53:00,